Wind_Speed
13 15 9 5 4 1 1 5 3 10 9 10 11 15 17 18 19 20 21 24 26 28 28 28 28 26 25 23 21 21 21 21
10 11 5 4 7 5 4 1 5 8 10 12 13 14 15 16 18 20 22 24 26 26 26 24 24 23 22 22 24 24 25 24
14 8 7 7 7 8 5 3 9 12 13 12 12 13 15 17 20 21 23 23 23 21 20 20 19 22 24 24 25 25 26 27
11 10 4 6 8 8 8 11 9 10 9 9 10 12 16 19 21 23 23 22 20 18 17 19 21 23 25 26 27 27 26 25
13 9 5 9 8 6 4 3 7 8 7 9 12 16 19 21 22 23 23 23 21 19 18 19 21 22 24 26 26 26 26 25
17 9 6 8 10 9 4 3 6 9 10 12 15 19 21 23 24 25 25 22 19 19 20 20 21 23 25 25 25 25 26 27
19 12 9 10 10 9 5 4 6 11 12 15 18 21 23 25 26 26 25 23 21 21 21 21 22 24 25 25 26 26 27 28
19 16 12 13 11 9 8 8 10 13 14 18 22 24 25 26 26 25 25 24 22 23 23 23 23 24 25 26 26 27 28 29
21 20 16 17 15 13 11 11 12 12 17 19 23 26 27 27 26 26 24 23 22 23 24 24 24 26 27 28 29 30 30 31
21 22 20 19 18 17 15 14 13 16 20 21 24 28 28 27 27 26 24 23 22 23 23 24 25 26 27 29 30 31 31 32
23 24 25 21 21 23 20 19 18 18 20 23 25 29 30 28 28 26 24 22 23 24 24 25 25 26 27 29 30 32 32 33
25 25 26 24 25 26 24 23 22 22 22 26 27 30 31 30 29 28 26 23 24 25 25 26 27 27 28 29 31 32 33 34
24 25 24 25 26 26 26 27 26 26 27 24 27 30 33 31 31 29 26 24 24 26 26 27 27 28 29 30 31 33 34 35
26 26 25 24 25 26 27 29 30 26 29 26 28 32 34 33 32 29 26 25 25 26 27 28 28 29 30 31 32 34 35 36
28 28 26 26 27 27 28 28 29 30 27 26 29 32 34 34 33 30 27 26 26 27 29 29 29 29 30 31 33 34 36 37
27 28 31 30 27 27 29 29 28 28 27 29 31 33 35 35 33 30 28 27 28 29 30 31 31 30 30 32 34 35 37 37
28 30 31 33 30 30 27 29 30 28 27 31 33 34 35 35 33 31 29 28 29 30 31 32 32 32 31 32 34 35 37 38
23 28 29 30 29 27 27 29 29 29 30 33 34 35 36 35 34 31 30 29 30 31 32 33 34 34 31 33 34 35 36 38
19 21 26 33 34 31 33 30 29 29 31 32 34 35 36 36 35 32 30 30 31 32 32 33 34 35 32 34 35 35 36 37
Wind_Direction
234 235 223 297 241 213 144 26 9 325 333 331 327 321 321 320 319 318 317 312 309 309 309 310 309 310 313 315 315 315 315 316
225 207 243 227 224 214 209 322 294 323 325 325 324 326 325 322 321 318 315 315 312 310 309 309 310 311 312 317 319 321 317 316
206 234 219 240 224 208 184 287 330 326 324 329 333 332 327 324 323 320 317 316 315 314 310 309 314 317 320 320 319 320 320 320
230 209 230 237 228 235 254 277 308 328 330 333 333 329 327 326 325 322 321 319 320 317 315 317 320 321 319 320 321 320 321 321
209 210 260 244 239 226 209 292 339 344 340 341 342 338 331 326 324 324 326 326 323 320 318 319 320 319 319 320 321 321 322 323
207 225 256 232 213 191 222 314 350 348 337 337 336 335 332 328 328 330 327 322 318 317 318 323 323 323 323 323 323 324 326 327
215 228 242 218 195 203 236 284 333 338 334 335 336 337 334 331 329 325 322 319 321 318 321 324 324 325 324 323 325 328 330 330
225 231 241 225 223 230 251 277 303 313 325 333 336 335 331 328 323 322 320 317 318 317 320 322 323 324 324 325 328 329 330 330
227 232 243 234 235 236 254 281 299 309 321 328 331 329 327 324 321 320 315 312 312 313 316 319 321 323 324 326 329 330 330 329
232 236 242 244 242 244 259 269 290 302 312 317 324 326 325 323 322 317 311 307 307 309 313 316 318 320 322 325 327 327 327 327
228 234 242 252 248 251 256 265 281 293 307 310 319 323 323 321 319 314 309 305 306 309 313 315 316 318 320 322 323 324 326 327
237 246 247 253 256 257 258 265 272 282 300 304 313 320 319 319 319 314 307 304 305 309 313 314 314 317 317 319 321 324 325 326
243 249 251 254 258 261 261 262 267 280 297 301 310 316 317 317 317 311 306 303 304 308 311 312 313 315 315 318 321 324 324 324
251 250 251 253 259 267 269 265 268 274 297 300 308 312 313 314 314 309 304 302 304 307 310 312 313 314 315 317 320 322 323 324
256 255 252 252 259 267 275 275 270 279 291 301 305 308 309 312 312 308 302 301 303 306 309 312 312 313 314 316 319 321 323 324
258 261 256 253 260 265 278 279 280 271 289 294 301 306 306 309 310 306 301 301 303 306 309 311 312 313 314 315 318 321 323 324
260 258 259 254 260 264 277 276 282 290 290 294 301 302 304 307 308 304 300 300 302 305 308 311 312 313 314 315 317 320 322 323
266 260 255 254 260 265 274 274 273 282 291 294 298 299 302 306 306 303 300 301 302 305 308 310 311 312 315 313 315 319 322 323
274 272 263 260 263 262 263 264 272 279 287 293 296 298 302 304 305 301 301 302 303 305 307 309 310 311 315 313 315 318 321 325
Height
3185 3186 3186 3186 3186 3184 3184 3184 3184 3184 3182 3180 3178 3177 3176 3175 3173 3171 3168 3166 3163 3159 3156 3153 3151 3149 3146 3143 3142 3140 3137 3134
3184 3184 3184 3183 3183 3183 3183 3183 3183 3182 3181 3179 3177 3176 3175 3174 3172 3169 3166 3163 3160 3157 3154 3152 3149 3146 3143 3140 3137 3135 3132 3130
3182 3183 3183 3182 3181 3182 3182 3182 3182 3181 3179 3178 3176 3175 3173 3171 3169 3167 3163 3160 3157 3154 3151 3149 3146 3143 3140 3137 3134 3132 3128 3124
3179 3180 3181 3181 3181 3181 3181 3181 3181 3180 3178 3177 3176 3175 3172 3170 3167 3164 3161 3157 3154 3151 3149 3146 3143 3140 3137 3134 3131 3127 3125 3122
3178 3178 3179 3179 3179 3179 3180 3181 3180 3178 3176 3175 3174 3172 3169 3167 3164 3161 3157 3154 3151 3148 3146 3143 3140 3138 3135 3131 3127 3123 3120 3117
3176 3176 3178 3178 3178 3179 3178 3178 3177 3176 3175 3173 3172 3170 3167 3163 3160 3156 3153 3151 3148 3146 3143 3140 3137 3134 3131 3128 3125 3121 3116 3112
3174 3175 3176 3176 3177 3177 3177 3176 3175 3175 3174 3172 3169 3166 3163 3159 3156 3152 3149 3146 3144 3143 3139 3136 3133 3130 3127 3124 3121 3116 3112 3107
3171 3173 3174 3174 3175 3175 3175 3174 3173 3172 3171 3168 3166 3163 3159 3156 3153 3149 3145 3143 3140 3139 3136 3133 3130 3127 3124 3120 3116 3111 3107 3103
3169 3170 3172 3173 3172 3172 3172 3171 3170 3169 3168 3165 3162 3159 3156 3153 3149 3145 3142 3140 3138 3136 3132 3129 3126 3123 3119 3115 3111 3106 3102 3098
3167 3168 3168 3169 3169 3170 3168 3167 3166 3166 3165 3162 3160 3157 3153 3150 3146 3142 3139 3136 3134 3132 3128 3125 3121 3118 3114 3110 3106 3102 3098 3093
3164 3164 3164 3165 3165 3165 3165 3164 3163 3162 3160 3159 3156 3153 3149 3146 3142 3138 3135 3132 3129 3127 3123 3120 3116 3113 3109 3106 3102 3097 3093 3087
3160 3160 3161 3161 3160 3160 3161 3160 3159 3158 3156 3154 3152 3148 3145 3141 3137 3133 3130 3127 3124 3121 3118 3115 3111 3107 3104 3100 3096 3091 3086 3081
3155 3155 3156 3156 3155 3155 3155 3155 3154 3153 3151 3149 3146 3143 3139 3135 3132 3128 3124 3121 3118 3115 3112 3109 3105 3101 3098 3094 3089 3084 3080 3075
3149 3149 3150 3151 3151 3151 3150 3149 3148 3148 3145 3143 3141 3138 3134 3130 3126 3122 3118 3115 3113 3109 3106 3103 3099 3095 3091 3087 3082 3078 3073 3068
3145 3144 3144 3145 3145 3145 3144 3143 3143 3141 3139 3137 3135 3132 3128 3124 3120 3116 3112 3109 3106 3103 3100 3096 3093 3089 3084 3080 3075 3071 3066 3061
3139 3139 3138 3139 3139 3139 3138 3138 3137 3135 3134 3131 3128 3125 3121 3117 3113 3110 3106 3103 3100 3097 3093 3089 3086 3083 3079 3073 3068 3064 3059 3054
3131 3130 3130 3131 3133 3132 3133 3131 3131 3129 3127 3125 3121 3119 3115 3111 3108 3104 3100 3097 3094 3090 3087 3082 3078 3075 3071 3067 3062 3057 3052 3046
3124 3123 3124 3124 3125 3126 3126 3125 3124 3123 3121 3118 3115 3112 3109 3105 3101 3097 3093 3090 3087 3084 3080 3076 3071 3067 3065 3059 3055 3051 3045 3039
3120 3119 3118 3118 3118 3119 3118 3118 3118 3117 3115 3112 3109 3105 3101 3097 3094 3090 3087 3084 3080 3077 3073 3069 3064 3059 3058 3052 3047 3043 3038 3031